This is the latest recevied weather packets stored in our database for station/object KE8GJZ-1. If no packets are shown the sender has not sent any weather packets the latest 10 day(s).
| Time | Temp. | Humidity | Pressure | Rain* | Wind** | Luminosity | Snow |
|---|---|---|---|---|---|---|---|
| 1777797515 | 1.67° C | 77% | 1012.8 hPa | 0 mm | - | 0 W/m² | - |
| 1777797212 | 1.67° C | 73% | 1012.7 hPa | 0 mm | - | 0 W/m² | - |
| 1777796908 | 1.11° C | 72% | 1012.8 hPa | 0 mm | - | 0 W/m² | - |
| 1777796606 | 1.11° C | 75% | 1012.8 hPa | 0 mm | - | 0 W/m² | - |
| 1777796301 | 1.67° C | 76% | 1013 hPa | 0 mm | - | 0 W/m² | - |
| 1777795998 | 1.67° C | 71% | 1012.8 hPa | 0 mm | - | 0 W/m² | - |
| 1777795694 | 1.67° C | 72% | 1013 hPa | 0 mm | - | 0 W/m² | - |
| 1777795391 | 1.67° C | 71% | 1012.9 hPa | 0 mm | - | 0 W/m² | - |
| 1777795087 | 1.67° C | 71% | 1012.8 hPa | 0 mm | - | 0 W/m² | - |
| 1777794784 | 1.67° C | 73% | 1012.9 hPa | 0 mm | - | 0 W/m² | - |
| 1777794480 | 1.67° C | 73% | 1012.9 hPa | 0 mm | - | 0 W/m² | - |
| 1777794175 | 1.67° C | 72% | 1013 hPa | 0 mm | - | 0 W/m² | - |
| 1777793872 | 1.67° C | 69% | 1013.1 hPa | 0 mm | - | 0 W/m² | - |
| 1777793569 | 1.67° C | 68% | 1012.8 hPa | 0 mm | - | 0 W/m² | - |
| 1777793268 | 1.67° C | 70% | 1012.9 hPa | 0 mm | - | 0 W/m² | - |
| 1777792965 | 1.67° C | 69% | 1013.1 hPa | 0 mm | - | 0 W/m² | - |
| 1777792661 | 2.22° C | 70% | 1012.8 hPa | 0 mm | - | 0 W/m² | - |
| 1777792358 | 2.22° C | 70% | 1013 hPa | 0 mm | - | 0 W/m² | - |
| 1777792054 | 2.22° C | 69% | 1013 hPa | 0 mm | - | 0 W/m² | - |
| 1777791752 | 2.22° C | 68% | 1013.2 hPa | 0 mm | - | 0 W/m² | - |
| 1777791450 | 2.22° C | 71% | 1012.9 hPa | 0 mm | - | 0 W/m² | - |
| 1777791147 | 2.22° C | 71% | 1013.1 hPa | 0 mm | - | 0 W/m² | - |
| 1777790844 | 2.22° C | 72% | 1013 hPa | 0 mm | - | 0 W/m² | - |
| 1777790541 | 2.22° C | 73% | 1013.3 hPa | 0 mm | - | 0 W/m² | - |
| 1777790238 | 1.67° C | 72% | 1013.2 hPa | 0 mm | - | 0 W/m² | - |
* Rain latest hour (hover to see other rain measurements)
** Current wind speed in m/s (hover to see current wind gust speed)